STARLINK-1902 (46763 NORAD) Tracking and Keplerian Element Data

This shows tracking and keplerian element data for the satellite.

Feedback or suggestion? Click here.




ElementValue
Catalog46763
NameSTARLINK-1902
Epoch Orbit561
Epoch Day331.16668981
Epoch Year2020
RAAN1.2152
Inclination53.055
Eccentricity0.0001198
Argument of Perigee64.7149
Mean Anonmoly324.7035
Mean Motion15.48160765
Decay Rate-0.01080749
L11 46763U 20074AA 20331.16668981 -.01080749 00000-0 -22335-1 0 9990
L22 46763 53.0550 1.2152 0001198 64.7149 324.7035 15.48160765 5616

Live tracking and technical data element details for STARLINK-1902 (NORAD 46763). STARLINK-1902 can be tracked NOW for your location showing map with azimuth and elevation plus other details from your city location.

Track the satellite on the map from your city or location and see movement details for azimuth, elevation, latitude, longitude, range, height, and movement on the map or in text.







IsCatalogInMostPopularTable: catalog: 46763, numindb: 6
Update: records affected: 1



GetName: 46763 STARLINK-1902

Hit Count: updated at: Thu, 26 Nov 2020 20:46:49 GMT